Regional Weather Roundup
Issued by NWS

Home | Current Version | Previous Version | Graphics & Text | Print | Product List | Glossary On
Versions: 1 2 3 4 5 6 7 8 9 10 11 12 13 14 15 16 17 18 19 20 21 22 23 24 25 26 27 28 29 30 31 32 33 34 35 36 37 38 39 40 41 42 43 44 45 46 47 48 49 50
328
ASUS44 KMEG 211200
RWRTN
TENNESSEE HOURLY STATE WEATHER ROUNDUP
NATIONAL WEATHER SERVICE MEMPHIS TN
600 AM CST SAT JAN 21 2017

TNZ002-004-019-021-049-052-054-088>092-211300-
WEST TENNESSEE

CITY           SKY/WX    TMP DP  RH WIND       PRES   REMARKS
MEMPHIS INTL   LGT RAIN  62  57  83 SW9       29.68R
NWS MEMPHIS      N/A     62 N/A N/A MISG        N/A
JACKSON        CLOUDY    57  54  89 CALM      29.67S
DYERSBURG      CLOUDY    61  50  67 SW6       29.65R
UNION CITY     PTCLDY    55  55 100 CALM      29.62F
PARIS          MOCLDY    55  52  88 CALM      29.67R
$$

TNZ008-025-027-028-033-062-065-066-211300-
NORTH MIDDLE TENNESSEE

CITY           SKY/WX    TMP DP  RH WIND       PRES   REMARKS
NASHVILLE      MOCLDY    57  53  86 SE6       29.72S
CLARKSVILLE    MOCLDY    56  51  84 S5        29.69S
SMYRNA         CLOUDY    57  54  89 S7        29.75R
CROSSVILLE     CLEAR     52  51  97 CALM      29.81F
$$

TNZ061-075-076-078-094-096-097-211300-
SOUTH MIDDLE TENNESSEE

CITY           SKY/WX    TMP DP  RH WIND       PRES   REMARKS
TULLAHOMA      CLEAR     55  55 100 SE6       29.78R
WINCHESTER     CLEAR     57  57 100 SE8       29.79R
MCMINNVILLE    PTCLDY    48  48 100 CALM      29.78R
COLUMBIA       CLEAR    N/A N/A N/A SE3       29.72R
SHELBYVILLE    CLEAR     57  55  94 SE6       29.76R
$$

TNZ017-018-042-046-047-211300-
NORTHEAST TENNESSEE

CITY           SKY/WX    TMP DP  RH WIND       PRES   REMARKS
TRI CITIES     PTCLDY    43  42  97 N3        29.86S
$$

TNZ012-013-036-069-073-074-211300-
CENTRAL EAST TENNESSEE

CITY           SKY/WX    TMP DP  RH WIND       PRES   REMARKS
KNOXVILLE      CLOUDY    50  47  89 N6        29.80F
OAK RIDGE      CLOUDY    50  48  93 CALM      29.82F
GATLINBURG     CLEAR     43  43 100 CALM      29.81F
$$

TNZ083-085-099-211300-
SOUTHEAST TENNESSEE

CITY           SKY/WX    TMP DP  RH WIND       PRES   REMARKS
CHATTANOOGA    MOCLDY    54  52  93 CALM      29.82R
$$

SKY/WX REPORTED AS FAIR MEANS FEW OR NO CLOUDS BELOW
12 THOUSAND FEET.





USA.gov is the U.S. government's official web portal to all federal, state and local government web resources and services.